Abetone, Italy 16 day weather forecast

Slopes altitude range 1200 m - 1940m

Number of lifts: 25 Pistes: 70km

In some cases the lift and piste totals shown are for the ski domain (e.g. Three Valleys) rather than individual resort (e.g. Courchevel)

Overview

The 16 day weather forecast is fully updated 4 times every day.

    • Mon 22 APR 2019
    • Mon 22
    • 12C 20C
    • Tue 23 APR 2019
    • Tue 23
    • 11C 14C
    • Wed 24 APR 2019
    • Wed 24
    • 11C 15C
    • Thu 25 APR 2019
    • Thu 25
    • 14C 21C
    • Fri 26 APR 2019
    • Fri 26
    • 12C 16C
    • Sat 27 APR 2019
    • Sat 27
    • 10C 21C
    • Sun 28 APR 2019
    • Sun 28
    • 13C 20C
    • Mon 29 APR 2019
    • Mon 29
    • 13C 19C
    • Tue 30 APR 2019
    • Tue 30
    • 11C 18C
    • Wed 01 MAY 2019
    • Wed 01
    • 10C 15C
    • Thu 02 MAY 2019
    • Thu 02
    • 7C 19C
    • Fri 03 MAY 2019
    • Fri 03
    • 7C 22C
    • Sat 04 MAY 2019
    • Sat 04
    • 12C 16C
    • Sun 05 MAY 2019
    • Sun 05
    • 13C 18C
    • Mon 06 MAY 2019
    • Mon 06
    • 10C 13C
    • Tue 07 MAY 2019
    • Tue 07
    • 9C 14C

Date:

Time Type 0°C level Temp Chill Snow Cloud Speed Gust Dir Press
3:00 2841m 11°C 11_6 0cm 100% 6mph 10mph 1014mB
6:00 2972m 11°C 11_8 0cm 100% 8mph 15mph 1013mB
9:00 3108m 12°C 12_9 0cm 100% 9mph 15mph 1011mB
12:00 3066m 20°C 20_9 0cm 85% 9mph 13mph 1009mB
15:00 2856m 20°C 20_7 0cm 68% 7mph 11mph 1008mB
18:00 2794m 20°C 20_6 0cm 84% 6mph 11mph 1007mB
21:00 2778m 11°C 11_5 0cm 100% 5mph 10mph 1007mB
0:00 2654m 11°C 11_4 0cm 100% 4mph 8mph 1005mB
3:00 2567m 11°C 11_4 0cm 100% 4mph 8mph 1003mB
6:00 2545m 11°C 11_3 0cm 100% 3mph 4mph 1003mB
9:00 2504m 11°C 11_3 0cm 100% 3mph 5mph 1004mB
12:00 2619m 14°C 14_3 0cm 98% 3mph 6mph 1004mB
15:00 2507m 13°C 13_3 0cm 100% 3mph 8mph 1005mB
18:00 2525m 13°C 13_4 0cm 100% 4mph 9mph 1006mB
21:00 2553m 11°C 11_3 0cm 99% 3mph 6mph 1009mB
0:00 2478m 11°C 11_4 0cm 95% 4mph 7mph 1010mB
3:00 2407m 11°C 11_3 0cm 89% 3mph 5mph 1011mB
6:00 2319m 11°C 11_3 0cm 93% 3mph 6mph 1014mB
9:00 2512m 11°C 11_5 0cm 95% 5mph 7mph 1016mB
12:00 2843m 15°C 15_5 0cm 90% 5mph 9mph 1016mB
15:00 2881m 16°C 16_7 0cm 100% 7mph 14mph 1015mB
18:00 2908m 16°C 16_4 0cm 99% 4mph 8mph 1016mB
21:00 2933m 10°C 10_2 0cm 86% 2mph 3mph 1017mB
0:00 2830m 10°C 10_3 0cm 78% 3mph 4mph 1018mB
3:00 2829m 10°C 10_3 0cm 80% 3mph 4mph 1019mB
6:00 2844m 10°C 10_3 0cm 45% 3mph 4mph 1020mB
9:00 2926m 14°C 14_4 0cm 22% 4mph 6mph 1020mB
12:00 2994m 21°C 21_6 0cm 31% 6mph 8mph 1020mB
15:00 3024m 21°C 21_5 0cm 93% 5mph 7mph 1018mB
18:00 3063m 21°C 21_3 0cm 97% 3mph 3mph 1018mB
21:00 3037m 12°C 12_1 0cm 100% 1mph 1mph 1019mB
0:00 2894m 10°C 10_1 0cm 100% 1mph 2mph 1018mB
3:00 2823m 9°C 9_2 0cm 36% 2mph 3mph 1018mB
6:00 2753m 9°C 9_3 0cm 18% 3mph 5mph 1017mB
9:00 2458m 12°C 12_8 0cm 3% 8mph 21mph 1017mB
12:00 2310m 16°C 16_11 0cm 33% 11mph 27mph 1015mB
15:00 2001m 16°C 16_14 0cm 2% 14mph 24mph 1014mB
18:00 2141m 16°C 16_5 0cm 1% 5mph 10mph 1014mB
21:00 2370m 8°C 8_3 0cm 0% 3mph 3mph 1016mB
0:00 2287m 8°C 8_5 0cm 2% 5mph 6mph 1017mB
3:00 2187m 7°C 7_5 0cm 0% 5mph 7mph 1018mB
6:00 2167m 7°C 7_5 0cm 1% 5mph 9mph 1021mB
9:00 2188m 10°C 10_0 0cm 0% 0mph 6mph 1022mB
12:00 2266m 21°C 21_4 0cm 0% 4mph 6mph 1022mB
15:00 2382m 20°C 20_6 0cm 0% 6mph 5mph 1021mB
18:00 2860m 20°C 20_3 0cm 0% 3mph 4mph 1022mB
21:00 2880m 10°C 10_4 0cm 10% 4mph 5mph 1024mB
0:00 2897m 10°C 10_3 0cm 31% 3mph 4mph 1024mB
3:00 2921m 10°C 10_3 0cm 83% 3mph 4mph 1024mB
6:00 2947m 9°C 9_3 0cm 80% 3mph 3mph 1024mB
9:00 2933m 13°C 13_3 0cm 78% 3mph 1mph 1024mB
12:00 2934m 20°C 20_6 0cm 77% 6mph 4mph 1023mB
15:00 3000m 20°C 20_6 0cm 76% 6mph 6mph 1021mB
18:00 3080m 20°C 20_3 0cm 46% 3mph 4mph 1021mB
21:00 3107m 11°C 11_3 0cm 0% 3mph 4mph 1021mB
0:00 3044m 10°C 10_3 0cm 2% 3mph 4mph 1021mB
3:00 3044m 9°C 9_3 0cm 26% 3mph 4mph 1020mB
6:00 3085m 9°C 9_1 0cm 26% 1mph 2mph 1019mB
9:00 3181m 13°C 13_5 0cm 60% 5mph 7mph 1018mB
12:00 3392m 19°C 19_8 0cm 49% 8mph 11mph 1016mB
15:00 3496m 19°C 19_12 0cm 86% 12mph 18mph 1013mB
18:00 3511m 19°C 19_8 0cm 68% 8mph 17mph 1011mB
21:00 3478m 10°C 10_7 0cm 54% 7mph 14mph 1011mB
0:00 3505m 9°C 9_7 0cm 63% 7mph 15mph 1009mB
3:00 3470m 9°C 9_8 0cm 16% 8mph 17mph 1006mB
6:00 3402m 8°C 8_10 0cm 16% 10mph 22mph 1005mB
9:00 3342m 11°C 11_15 0cm 11% 15mph 32mph 1004mB
12:00 3303m 18°C 18_20 0cm 5% 20mph 40mph 1003mB
15:00 3225m 18°C 18_17 0cm 0% 17mph 34mph 1002mB
18:00 2862m 18°C 18_7 0cm 0% 7mph 25mph 1003mB
21:00 2520m 9°C 9_5 0cm 0% 5mph 10mph 1006mB
0:00 2360m 7°C 7_1 0cm 0% 1mph 1mph 1007mB
3:00 2287m 6°C 6_5 0cm 3% 5mph 6mph 1008mB
6:00 2014m 7°C 7_5 0cm 12% 5mph 9mph 1009mB
9:00 2018m 10°C 10_7 0cm 66% 7mph 10mph 1010mB
12:00 2065m 15°C 15_6 0cm 83% 6mph 8mph 1009mB
15:00 2136m 15°C 15_5 0cm 100% 5mph 7mph 1008mB
18:00 2254m 15°C 15_3 0cm 100% 3mph 4mph 1009mB
21:00 2220m 8°C 8_5 0cm 10% 5mph 6mph 1010mB
0:00 2154m 7°C 7_5 0cm 5% 5mph 6mph 1010mB
Afternoon 0.00520833mm 0.0625 2154m 19°C 19_5 0cm 14% 5mph 7mph 1009mB
Morning 0.0104167mm 0.125 2464m 9°C 9_1 0cm 7% 1mph 2mph 1011mB
Afternoon 0mm 0 2640m 22°C 22_2 0cm 0% 2mph 4mph 1010mB
Morning 0.00520833mm 0 2943m 12°C 12_4 0cm 13% 4mph 6mph 1009mB
Afternoon 0.182292mm 0.5625 3178m 16°C 16_7 0cm 93% 7mph 12mph 1005mB
Morning 0.354167mm 2.125 3297m 14°C 14_1 0cm 79% 1mph 2mph 1005mB
Afternoon 0.203125mm 0.9375 3005m 18°C 18_5 0cm 69% 5mph 9mph 1002mB
Morning 0.4375mm 4.625 2234m 10°C 10_12 0cm 63% 12mph 26mph 1003mB
Afternoon 0.140625mm 0.625 2454m 13°C 13_15 0cm 80% 15mph 28mph 1005mB
Morning 0.0104167mm 0.0625 2198m 10°C 10_13 0cm 23% 13mph 26mph 1007mB
Afternoon 0.015625mm 0.125 1725m 14°C 14_14 0cm 45% 14mph 21mph 1010mB
Morning 0.109375mm 0 1710m 7°C 7_2 0cm 41% 2mph 3mph 1015mB

16 day outlook at a glance

Forecast issued: 22/04/2019 08:37:33

Chat

Your comments and questions. In a resort? Let us know what it's like!


Characters left 250

For terms and conditions see Readers Comments on the Cookie and privacy policy page.